Regional Weather Roundup
Issued by NWS

Home | Current Version | Previous Version | Graphics & Text | Print | Product List | Glossary On
Versions: 1 2 3 4 5 6 7 8 9 10 11 12 13 14 15 16 17 18 19 20 21 22 23 24 25 26 27 28 29 30 31 32 33 34 35 36 37 38 39 40 41 42 43 44 45 46 47 48 49 50
000
ASUS43 KIND 011559
RWRIN

WEATHER ROUNDUP FOR INDIANA
NATIONAL WEATHER SERVICE INDIANAPOLIS IN
1200 PM EDT WED APR 01 2015

NOTE: "FAIR" INDICATES FEW OR NO CLOUDS BELOW 12,000 FEET WITH NO
SIGNIFICANT WEATHER AND/OR OBSTRUCTIONS TO VISIBILITY.

* - STATION DOES NOT REPORT WEATHER SUCH AS PRECIPITATION OR FOG.

+ - STATION NOT QUALITY CONTROLLED BY THE NATIONAL WEATHER SERVICE.
    USE DATA WITH CAUTION...ESPECIALLY DEWPOINT AND RELATIVE
    HUMIDITY OBSERVATIONS.

INZ001>003-010>013-019-020-011700-
NORTHWEST INDIANA

CITY           SKY/WX    TMP DP  RH WIND       PRES   REMARKS
GARY /AIRPORT/ SUNNY     61  30  31 SW14      30.07

$$

LMZ046-743>745-011700-
SOUTHERN LAKE MICHIGAN

STATION/POSITION TIME  TEMP WIND        PRES
                       AIR  DIR/SP/G
                 (UTC) (F)  (DEG/KT/KT) (MB)
BURNS HARBOR     1500   57  190/  8/ 15 1019.0F
MICHIGAN CITY    1500   49  310/  2/  3   N/A

$$

INZ004-005-014>016-021>024-011700-
NORTH CENTRAL INDIANA

CITY           SKY/WX    TMP DP  RH WIND       PRES   REMARKS
ELKHART        SUNNY     57  32  38 SW7       30.12S
GOSHEN         SUNNY     58  37  45 W12       30.11S
SOUTH BEND     SUNNY     57  35  43 SW9       30.11F

$$

INZ006>009-017-018-025>027-011700-
NORTHEAST INDIANA

CITY           SKY/WX    TMP DP  RH WIND       PRES   REMARKS
ANGOLA *+      SUNNY     57  36  44 W9        30.11S
FORT WAYNE     SUNNY     58  37  45 SW10      30.13S

$$

INZ028-029-035-036-043>045-051>053-011700-
WEST CENTRAL INDIANA

CITY           SKY/WX    TMP DP  RH WIND       PRES   REMARKS
GREENCASTLE +  SUNNY     59  30  33 SE9       30.12F
LAFAYETTE      SUNNY     61  36  39 SW10      30.10F
TERRE HAUTE    SUNNY     61  40  45 S7        30.11F

$$

INZ030>032-037>040-046>048-054>057-064-065-011700-
CENTRAL INDIANA

CITY           SKY/WX    TMP DP  RH WIND       PRES   REMARKS
ANDERSON       SUNNY     43  36  75 S12G17    30.15S
COLUMBUS       SUNNY     55  30  38 S8        30.15S
GREENWOOD *+   SUNNY     57  32  38 S7        30.14F
INDIANAPOLIS   MOSUNNY   59  33  37 S9        30.11F
-EAGLE CREEK   SUNNY     58  35  42 S9        30.12F
MT COMFORT *+  SUNNY     57  27  30 S9        30.14S
SHELBYVILLE    SUNNY     58  38  47 S8        30.14F

$$

INZ033-034-041-042-049-050-058-059-011700-
EAST CENTRAL INDIANA

CITY           SKY/WX    TMP DP  RH WIND       PRES   REMARKS
MUNCIE         SUNNY     57  35  43 SW10      30.14R

$$

INZ060-061-067>069-081>083-085>088-011700-
SOUTHWEST INDIANA

CITY           SKY/WX    TMP DP  RH WIND       PRES   REMARKS
EVANSVILLE     SUNNY     61  38  42 SE10      30.12S
HUNTINGBURG *+ SUNNY     61  37  41 S7        30.13S

$$

INZ062-063-066-070>080-084-089>092-011700-
SOUTH CENTRAL AND SOUTHEAST INDIANA

CITY           SKY/WX    TMP DP  RH WIND       PRES   REMARKS
BLOOMINGTON    SUNNY     60  33  36 S12       30.12S
MADISON *+     SUNNY     55  32  41 E5        30.17S
SEYMOUR +      SUNNY     61  37  41 SE8       30.14S

$$




USA.gov is the U.S. government's official web portal to all federal, state and local government web resources and services.